Weather History for Greenville, MS

Change the Weather History Date:

Sunday, March 3, 2013

  Actual Average Record
Temperature  
Mean Temperature 36 °F 51 °F  
Max Temperature 50 °F 62 °F 82 °F (1955)
Min Temperature 21 °F 41 °F 15 °F (1943)
Degree Days  
Heating Degree Days 29 14  
Month to date heating degree days 91 43  
Since 1 July heating degree days 2094 2352  
Cooling Degree Days 0 0  
Month to date cooling degree days 0 0  
Year to date cooling degree days 10 5  
Moisture  
Dew Point 24 °F    
Average Humidity 65    
Maximum Humidity 96    
Minimum Humidity 34    
Precipitation  
Precipitation 0.00 in 0.12 in 2.81 in (1977)
Month to date precipitation 0.00 0.37  
Year to date precipitation 12.46 10.36  
Sea Level Pressure  
Sea Level Pressure 30.22 in    
Wind  
Wind Speed 5 mph (South)    
Max Wind Speed 10 mph    
Max Gust Speed 14 mph    
Visibility 8 miles    
Events      
T = Trace of Precipitation, MM = Missing Value Source: NWS Daily Summary

Daily Weather History Graph

Daily Weather History Graph

Search for Another Location

Airport:

Trip Planner

Search our weather history database for the weather conditions in past years. The results will help you decide how hot, cold, wet, or windy it might be!

Date:

Astronomy

Mar. 03, 2013 Rise Set
Actual Time 6:29 AM CST 6:02 PM CST
Civil Twilight 6:04 AM CST 6:27 PM CST
Nautical Twilight 5:35 AM CST 6:56 PM CST
Astronomical Twilight 5:07 AM CST 7:25 PM CST
Moon No Moon Rise 10:04 AM CST (3/3)
Length of Visible Light 12h 22m
Length of Day
11h 33m
Waning Gibbous, 63% of the Moon is Illuminated
Mar 3
Waning Gibbous
Mar 4
Last Quarter
Mar 11
New
Mar 19
First Quarter
Mar 27
Full

Hourly Weather History & Observations

Time (CST) Temp. Windchill Dew Point Humidity Pressure Visibility Wind Dir Wind Speed Gust Speed Precip Events Conditions
12:53 AM 26.1 °F - 23.0 °F 88% 30.30 in 10.0 mi Calm Calm - N/A   Clear
1:53 AM 25.0 °F - 21.9 °F 88% 30.29 in 10.0 mi Calm Calm - N/A   Clear
2:53 AM 23.0 °F - 21.9 °F 96% 30.28 in 7.0 mi Calm Calm - N/A   Clear
3:37 AM 24.8 °F - 23.0 °F 93% 30.25 in 1.8 mi Calm Calm - N/A   Clear
3:53 AM 24.1 °F - 23.0 °F 96% 30.27 in 1.2 mi Calm Calm - N/A   Clear
4:24 AM 24.8 °F - 23.0 °F 93% 30.25 in 2.5 mi Calm Calm - N/A   Clear
4:31 AM 24.8 °F - 23.0 °F 93% 30.25 in 3.0 mi Calm Calm - N/A   Clear
4:38 AM 24.8 °F - 23.0 °F 93% 30.25 in 2.0 mi Calm Calm - N/A   Clear
4:50 AM 24.8 °F - 21.2 °F 86% 30.25 in 6.0 mi Calm Calm - N/A   Clear
4:53 AM 24.1 °F - 21.9 °F 91% 30.28 in 6.0 mi Calm Calm - N/A   Clear
5:53 AM 24.1 °F - 21.0 °F 88% 30.30 in 9.0 mi Calm Calm - N/A   Clear
6:53 AM 24.1 °F 18.2 °F 21.9 °F 91% 30.29 in 9.0 mi SW 4.6 mph - N/A   Clear
7:53 AM 30.9 °F 26.2 °F 28.0 °F 89% 30.30 in 10.0 mi WSW 4.6 mph - N/A   Clear
8:53 AM 36.0 °F 30.3 °F 26.1 °F 67% 30.30 in 10.0 mi SW 6.9 mph - N/A   Clear
9:53 AM 37.9 °F 34.4 °F 21.0 °F 51% 30.31 in 10.0 mi SSW 4.6 mph - N/A   Clear
10:53 AM 41.0 °F 35.8 °F 21.9 °F 47% 30.30 in 10.0 mi WSW 8.1 mph - N/A   Clear
11:53 AM 43.0 °F 39.5 °F 23.0 °F 45% 30.27 in 10.0 mi WSW 5.8 mph - N/A   Clear
12:53 PM 44.1 °F - 21.0 °F 40% 30.23 in 10.0 mi Calm Calm - N/A   Mostly Cloudy
1:53 PM 46.9 °F - 21.0 °F 36% 30.21 in 10.0 mi WSW 5.8 mph - N/A   Clear
2:53 PM 48.9 °F - 21.0 °F 33% 30.18 in 10.0 mi WSW 4.6 mph - N/A   Clear
3:53 PM 50.0 °F - 25.0 °F 38% 30.15 in 10.0 mi SSE 8.1 mph - N/A   Clear
4:53 PM 48.9 °F - 27.0 °F 43% 30.14 in 10.0 mi South 9.2 mph - N/A   Clear
5:53 PM 46.9 °F - 27.0 °F 46% 30.13 in 10.0 mi SSE 8.1 mph - N/A   Clear
6:53 PM 44.1 °F 39.5 °F 28.9 °F 55% 30.13 in 10.0 mi SSE 8.1 mph - N/A   Clear
7:53 PM 42.1 °F 37.1 °F 28.9 °F 60% 30.11 in 10.0 mi SSE 8.1 mph - N/A   Clear
8:53 PM 41.0 °F 35.8 °F 30.0 °F 65% 30.11 in 10.0 mi SE 8.1 mph - N/A   Clear
9:53 PM 41.0 °F 35.2 °F 28.9 °F 62% 30.10 in 10.0 mi SE 9.2 mph - N/A   Clear
10:53 PM 41.0 °F 35.2 °F 28.0 °F 60% 30.09 in 10.0 mi SSE 9.2 mph - N/A   Clear
11:53 PM 41.0 °F 36.4 °F 28.0 °F 60% 30.08 in 10.0 mi SSE 6.9 mph - N/A   Clear